Overview Statistics Trail Chart Weather Telemetry Raw packets
 

This is the latest recevied weather packets stored in our database for station/object VU2EXP-13. If no packets are shown the sender has not sent any weather packets the latest 10 day(s).

<< 20 21 22 23 24 25 26 >>
Time Temp. Humidity Pressure Rain* Wind** Luminosity Snow
1787843140 30.56° C 57% 990.2 hPa - - - -
1787842240 30.56° C 57% 990.1 hPa - - - -
1787841340 31.11° C 56% 990 hPa - - - -
1787840439 31.11° C 56% 989.8 hPa - - - -
1787839539 31.11° C 56% 989.8 hPa - - - -
1787838639 31.11° C 55% 989.7 hPa - - - -
1787837739 31.67° C 54% 989.6 hPa - - - -
1787836839 31.67° C 53% 989.5 hPa - - - -
1787835939 32.22° C 51% 989.4 hPa - - - -
1787835039 32.22° C 50% 989.3 hPa - - - -
1787834139 32.78° C 49% 989.3 hPa - - - -
1787833239 32.78° C 49% 989.2 hPa - - - -
1787832339 32.78° C 48% 989.2 hPa - - - -
1787831438 33.33° C 47% 989.2 hPa - - - -
1787830538 33.89° C 46% 989.1 hPa - - - -
1787829638 34.44° C 46% 989 hPa - - - -
1787828738 35° C 45% 989.2 hPa - - - -
1787827838 33.89° C 46% 989.2 hPa - - - -
1787826938 33.89° C 47% 989.2 hPa - - - -
1787826038 34.44° C 45% 989.3 hPa - - - -
1787825138 33.89° C 47% 989.4 hPa - - - -
1787824237 35.56° C 46% 989.5 hPa - - - -
1787823337 35° C 46% 989.5 hPa - - - -
1787822438 35.56° C 44% 989.7 hPa - - - -
1787821537 34.44° C 47% 989.9 hPa - - - -

* Rain since midnight (hover to see other rain measurements)
** Current wind speed in m/s (hover to see current wind gust speed)